Regional Weather Roundup
Issued by NWS

Home | Current Version | Previous Version | Text Only | Print | Product List | Glossary Off
Versions: 1 2 3 4 5 6 7 8 9 10 11 12 13 14 15 16 17 18 19 20 21 22 23 24 25 26 27 28 29 30 31 32 33 34 35 36 37 38 39 40 41 42 43 44 45 46

000
ASUS45 KBOU 270007
RWRCO

WEATHER ROUNDUP FOR COLORADO
NATIONAL WEATHER SERVICE DENVER/BOULDER CO
500 PM MST THU FEB 26 2015

NOTE: "FAIR" INDICATES FEW OR NO CLOUDS BELOW 12000 FEET WITH NO
SIGNIFICANT WEATHER AND/OR OBSTRUCTIONS TO VISIBILITY.

COZ001>005-013-030-031-270100-
...NORTHWEST COLORADO...

CITY           SKY/WX    TMP DP  RH WIND       PRES   REMARKS
CRAIG          LGT SNOW  28  22  78 CALM      29.87S
HAYDEN         CLOUDY    25  19  80 S3        29.85F
MEEKER         CLOUDY    29  24  82 CALM      29.84F
MOUNT WERNER   NOT AVBL
STEAMBOAT SPGS CLOUDY    25  12  58 CALM      29.84F
WALDEN         CLOUDY    18  10  73 N12       29.82F WCI   5
$$

COZ006>008-011-270100-
...WEST CENTRAL VALLEYS...

CITY           SKY/WX    TMP DP  RH WIND       PRES   REMARKS
GRAND JUNCTION CLOUDY    41  17  38 W6        29.84F
MONTROSE       CLOUDY    32  19  58 E6        29.87F WCI  26
EAGLE          MOCLDY    34  19  55 SW14G20   29.84F WCI  24
RIFLE          PTSUNNY   38  16  40 W12       29.83F
DELTA          CLOUDY    37  28  68 CALM      29.87S
NUCLA          CLOUDY    36  18  48 SW12      29.89S
$$

COZ017>023-064>068-270100-
...SOUTHWEST COLORADO...

CITY           SKY/WX    TMP DP  RH WIND       PRES   REMARKS
DURANGO        CLOUDY    34  23  64 E3        29.86F
CORTEZ         FLURRIES  36  22  56 VRB3      29.88R
PAGOSA SPRINGS CLOUDY    33  17  50 SW6       29.86F WCI  28
TELLURIDE      CLOUDY    27  11  51 CALM      29.84S
WOLF CREEK PAS CLOUDY    10  10 100 SW21G31   29.83F WCI  -9
$$

COZ009-010-012-014-032>034-037-058>063-270100-
...CENTRAL COLORADO...

CITY           SKY/WX    TMP DP  RH WIND       PRES   REMARKS
ASPEN          LGT SNOW  24  20  84 CALM      29.81F FOG
BUENA VISTA    CLOUDY    22  15  75 SE10      29.84S WCI  11
COPPER MTN     LGT SNOW  14   7  73 W10G16    29.74F WCI   1
BERTHOUD PASS  SNOW       3  -4  72 CALM      29.72F VSB 1/2
COTTONWOOD PAS LGT SNOW  21  18  86 E3        29.79F
GUNNISON       CLOUDY    25   9  50 E3        29.87S
KREMMLING      LGT SNOW  23  18  80 SW5       29.85F WCI  17
LEADVILLE      CLOUDY    17   9  70 N7        29.77S WCI   8
MONARCH PASS     N/A     10   5  79 MISG      29.86F
SALIDA         CLOUDY    17  11  74 SE20G29   29.93S WCI   1
SUNLIGHT       SNOW      18  14  86 CALM        N/A  VSB 1/2
WILKERSON PASS LGT SNOW   9   5  85 S5        29.78F VSB 3/4 WCI   0
$$

COZ069>075-270100-
...SAN LUIS VALLEY/SANGRE DE CRISTO MOUNTAINS...

CITY           SKY/WX    TMP DP  RH WIND       PRES   REMARKS
ALAMOSA        CLOUDY    29  21  72 SW3       29.83F
LA VETA PASS   CLOUDY     5   1  85 MISG      29.82S
SAGUACHE       CLOUDY    25  19  80 NE6       29.86S HAZE    WCI  18
$$

COZ035-036-038>040-270100-
...NORTHERN COLORADO FRONT RANGE...

CITY           SKY/WX    TMP DP  RH WIND       PRES   REMARKS
DENVER INTL AP LGT SNOW  14  12  92 E15       30.10F VSB 1   WCI  -1
DMNS CITY PARK   N/A     16  13  86 NE7       30.11F WCI   6
AURORA         LGT SNOW  14  10  83 E13       30.09S WCI   0
FRONT RANGE AP NOT AVBL
ERIE MUNI ARPT LGT SNOW  17  14  89 E7        30.14S VSB 3/4 WCI   8
BOULDER MUN AP LGT SNOW  18  14  86 CALM      30.13S
CENTENNIAL     LGT SNOW  14  10  84 NE7       30.06S VSB 3/4 WCI   4
BROOMFIELD     NOT AVBL
FORT COLLINS   CLOUDY    16  10  79 SE13      30.16S WCI   2
LONGMONT       SNOW      19  14  82 E3        30.17S VSB 1/2
$$

COZ041-046-047-076>085-087-088-270100-
...PIKES PEAK/PALMER DIVIDE AND SOUTHERN FOOTHILLS...

CITY           SKY/WX    TMP DP  RH WIND       PRES   REMARKS
COLO. SPRINGS  LGT SNOW  12   9  87 SE15      30.08S VSB 3/4 WCI  -4
A. F. ACADEMY  LGT SNOW  11   6  79 S12       30.03S WCI  -3
ELLICOTT       NOT AVBL
FALCON         LGT SNOW  10   5  82 SE12      30.04S VSB 1   WCI  -5
FORT CARSON    SNOW      12   9  85 SE9       30.08R VSB 1/4 WCI   0
LIMON          SNOW      13  10  88 S10       30.13S VSB 1/2 WCI   0
MONUMENT HILL  LGT SNOW  10   5  79 S15       29.99S WCI  -6
TRINIDAD       CLOUDY    21  16  81 E12       30.02S WCI   9
$$

COZ042>045-048>051-090-091-270100-
...NORTHEAST COLORADO...

CITY           SKY/WX    TMP DP  RH WIND       PRES   REMARKS
GREELEY ARPT   CLOUDY    18   9  68 E13       30.17S WCI   4
AKRON          CLOUDY    12   8  84 E8        30.20S WCI   0
BURLINGTON     MOCLDY    16   7  67 E10       30.24S WCI   4
WRAY           CLOUDY    18  11  76 E5        30.29S HAZE    WCI  11
STERLING       LGT SNOW  18  10  73 E3        30.25S
HOLYOKE        NOT AVBL
FORT MORGAN    CLOUDY    16  10  78 NE12      30.21S WCI   2
$$

COZ086-089-092>099-270100-
...SOUTHEAST COLORADO...

CITY           SKY/WX    TMP DP  RH WIND       PRES   REMARKS
PUEBLO         LGT SNOW  16  12  84 E13       30.15S FOG     WCI   2
LA JUNTA       FLURRIES  18  11  74 SE16      30.20S WCI   3
LAMAR          LGT SNOW  18  12  77 SE10      30.25S WCI   6
SPRINGFIELD      N/A     15  11  83 E12       30.21R WCI   2
$$



USA.gov is the U.S. government's official web portal to all federal, state and local government web resources and services.